Location: ????????
(55.7667°N, 37.4833°E)
Time: 07:47:03
(UTC+00:00)

Cosmos 1151 Rocket - Pass Details

Date: 19 May 2025
Orbit: 586 x 606 km, 82.5° (Epoch: 23 June)

Event Time Altitude Azimuth Distance (km) Brightness Sun altitude
Exits shadow 22:19:35 13° 235° (SW) 1,714 4.9 -13.4°
Maximum altitude 22:22:45 30° 293° (WNW) 1,061 4.3 -13.3°
Drops below altitude 10° 22:26:32 10° 356° (N) 1,926 6.8 -13.2°
Sets 22:28:58 0° 7° (N) 2,832 8.4 -13.1°
